Weather History for KRQB - April, 2014

Change the Weather History Date:

Thursday, April 17, 2014

  Actual Average Record
Temperature  
Mean Temperature 45 °F -  
Max Temperature 58 °F 57 °F 80 °F (1976)
Min Temperature 32 °F 33 °F 21 °F (1983)
Degree Days  
Heating Degree Days 20    
Moisture  
Dew Point 29 °F    
Average Humidity 56    
Maximum Humidity 72    
Minimum Humidity 37    
Precipitation  
Precipitation 0.00 in - - ()
Sea Level Pressure  
Sea Level Pressure 30.22 in    
Wind  
Wind Speed 12 mph (South)    
Max Wind Speed 18 mph    
Max Gust Speed 30 mph    
Visibility 10 miles    
Events      
Averages and records for this station are not official NWS values.
T = Trace of Precipitation, MM = Missing Value Source: NWS Daily Summary

Daily Weather History Graph

Daily Weather History Graph

Search for Another Location

Airport or City:

Trip Planner

Search our weather history database for the weather conditions in past years. The results will help you decide how hot, cold, wet, or windy it might be!

Date:

Astronomy

Apr. 17, 2014 Rise Set
Actual Time 6:55 AM EDT 8:27 PM EDT
Civil Twilight 6:25 AM EDT 8:58 PM EDT
Nautical Twilight 5:49 AM EDT 9:34 PM EDT
Astronomical Twilight 5:10 AM EDT 10:13 PM EDT
Moon 11:17 PM EDT (4/17) 8:23 AM EDT (4/17)
Length of Visible Light 14h 32m
Length of Day
13h 32m
Waning Gibbous, 94% of the Moon is Illuminated
Apr 17
Waning Gibbous
Apr 22
Last Quarter
Apr 29
New
May 6
First Quarter
May 14
Full

Hourly Weather History & Observations

Time (EDT) Temp. Windchill Dew Point Humidity Pressure Visibility Wind Dir Wind Speed Gust Speed Precip Events Conditions
12:15 AM 36.7 °F 26.9 °F 23.4 °F 59% 30.27 in 10.0 mi SE 17.3 mph 25.3 mph N/A   Mostly Cloudy
12:34 AM 36.5 °F 27.4 °F 23.0 °F 58% 30.27 in 10.0 mi SE 15.0 mph - N/A   Overcast
12:55 AM 36.3 °F 26.1 °F 22.3 °F 57% 30.27 in 10.0 mi SE 18.4 mph 23.0 mph N/A   Mostly Cloudy
1:15 AM 36.0 °F 27.1 °F 21.7 °F 56% 30.27 in 10.0 mi SE 13.8 mph 23.0 mph N/A   Mostly Cloudy
1:34 AM 36.0 °F 27.5 °F 21.7 °F 56% 30.29 in 10.0 mi SE 12.7 mph 18.4 mph N/A   Mostly Cloudy
1:55 AM 35.6 °F 27.5 °F 21.7 °F 57% 30.29 in 10.0 mi SE 11.5 mph - N/A   Scattered Clouds
2:15 AM 35.2 °F 26.6 °F 22.1 °F 59% 30.29 in 10.0 mi SE 12.7 mph - N/A   Clear
2:34 AM 34.9 °F 25.7 °F 22.3 °F 60% 30.30 in 10.0 mi SE 13.8 mph 17.3 mph N/A   Clear
2:55 AM 34.9 °F 27.1 °F 22.3 °F 60% 30.30 in 10.0 mi SE 10.4 mph - N/A   Clear
3:15 AM 34.7 °F 26.9 °F 22.6 °F 61% 30.29 in 10.0 mi SE 10.4 mph - N/A   Scattered Clouds
3:34 AM 34.5 °F 27.3 °F 22.8 °F 62% 30.29 in 10.0 mi SE 9.2 mph - N/A   Mostly Cloudy
3:55 AM 34.3 °F 27.0 °F 23.0 °F 63% 30.29 in 10.0 mi SE 9.2 mph - N/A   Overcast
4:15 AM 34.2 °F 25.7 °F 23.0 °F 64% 30.28 in 10.0 mi SE 11.5 mph 16.1 mph N/A   Scattered Clouds
4:34 AM 34.2 °F 26.2 °F 22.8 °F 63% 30.28 in 10.0 mi SE 10.4 mph - N/A   Scattered Clouds
4:55 AM 33.8 °F 25.3 °F 23.4 °F 66% 30.27 in 10.0 mi ESE 11.5 mph 16.1 mph N/A   Scattered Clouds
5:15 AM 33.8 °F 26.4 °F 23.0 °F 65% 30.26 in 10.0 mi ESE 9.2 mph - N/A   Clear
5:34 AM 33.8 °F 27.0 °F 22.8 °F 64% 30.27 in 10.0 mi ESE 8.1 mph - N/A   Clear
5:55 AM 33.6 °F 25.6 °F 22.8 °F 65% 30.27 in 10.0 mi ESE 10.4 mph - N/A   Clear
6:15 AM 33.4 °F 27.3 °F 23.0 °F 66% 30.27 in 10.0 mi ESE 6.9 mph - N/A   Clear
6:34 AM 33.3 °F 25.7 °F 22.8 °F 66% 30.26 in 10.0 mi SE 9.2 mph - N/A   Clear
6:55 AM 32.9 °F 25.9 °F 23.0 °F 67% 30.26 in 10.0 mi ESE 8.1 mph - N/A   Clear
7:15 AM 32.2 °F 24.4 °F 22.8 °F 68% 30.26 in 10.0 mi SE 9.2 mph - N/A   Scattered Clouds
7:34 AM 32.2 °F 24.4 °F 22.8 °F 68% 30.26 in 10.0 mi ESE 9.2 mph - N/A   Scattered Clouds
7:55 AM 33.1 °F 24.9 °F 22.6 °F 66% 30.26 in 10.0 mi SE 10.4 mph - N/A   Scattered Clouds
8:14 AM 33.1 °F 23.9 °F 23.4 °F 67% 30.25 in 10.0 mi SE 12.7 mph 17.3 mph N/A   Clear
8:35 AM 34.0 °F 25.0 °F 23.5 °F 66% 30.26 in 10.0 mi SE 12.7 mph - N/A   Scattered Clouds
8:55 AM 35.1 °F 25.5 °F 24.1 °F 64% 30.26 in 10.0 mi SE 15.0 mph 19.6 mph N/A   Mostly Cloudy
9:14 AM 36.9 °F 27.8 °F 25.2 °F 63% 30.25 in 10.0 mi SE 15.0 mph - N/A   Scattered Clouds
9:35 AM 38.5 °F 29.9 °F 25.3 °F 59% 30.24 in 10.0 mi SE 15.0 mph 20.7 mph N/A   Scattered Clouds
9:55 AM 39.2 °F 30.8 °F 25.2 °F 57% 30.22 in 10.0 mi SE 15.0 mph - N/A   Clear
10:14 AM 40.3 °F 32.2 °F 26.1 °F 57% 30.22 in 10.0 mi SE 15.0 mph - N/A   Clear
10:35 AM 42.6 °F 35.6 °F 26.8 °F 54% 30.22 in 10.0 mi SSE 13.8 mph - N/A   Scattered Clouds
10:55 AM 43.9 °F 36.8 °F 26.8 °F 51% 30.21 in 10.0 mi SSE 15.0 mph 24.2 mph N/A   Scattered Clouds
11:14 AM 45.0 °F 39.3 °F 27.1 °F 50% 30.21 in 10.0 mi SE 11.5 mph 21.9 mph N/A   Overcast
11:35 AM 46.6 °F - 28.2 °F 49% 30.21 in 10.0 mi South 12.7 mph 19.6 mph N/A   Mostly Cloudy
12:14 PM 46.9 °F - 28.9 °F 50% 30.19 in 10.0 mi SSE 15.0 mph 18.4 mph N/A   Overcast
12:35 PM 48.7 °F - 29.3 °F 47% 30.19 in 10.0 mi SSE 12.7 mph 18.4 mph N/A   Overcast
12:54 PM 50.0 °F - 29.7 °F 46% 30.19 in 10.0 mi South 9.2 mph 19.6 mph N/A   Overcast
1:15 PM 51.4 °F - 30.6 °F 45% 30.18 in 10.0 mi South 12.7 mph 19.6 mph N/A   Overcast
1:35 PM 53.1 °F - 30.2 °F 42% 30.17 in 10.0 mi South 12.7 mph 24.2 mph N/A   Scattered Clouds
1:54 PM 53.8 °F - 30.0 °F 40% 30.17 in 10.0 mi South 10.4 mph 18.4 mph N/A   Mostly Cloudy
2:15 PM 54.9 °F - 29.7 °F 38% 30.17 in 10.0 mi SSW 12.7 mph 21.9 mph N/A   Scattered Clouds
2:34 PM 55.4 °F - 30.0 °F 38% 30.17 in 10.0 mi SSW 11.5 mph 21.9 mph N/A   Clear
2:54 PM 56.5 °F - 30.9 °F 38% 30.17 in 10.0 mi SSW 12.7 mph 24.2 mph N/A   Scattered Clouds
3:15 PM 57.0 °F - 31.6 °F 38% 30.16 in 10.0 mi SSW 17.3 mph 24.2 mph N/A   Scattered Clouds
3:34 PM 58.5 °F - 32.9 °F 38% 30.16 in 10.0 mi WSW 13.8 mph 20.7 mph N/A   Mostly Cloudy
3:54 PM 58.1 °F - 32.0 °F 37% 30.16 in 10.0 mi SW 13.8 mph 24.2 mph N/A   Mostly Cloudy
4:15 PM 57.7 °F - 32.2 °F 38% 30.16 in 10.0 mi SW 12.7 mph 23.0 mph N/A   Clear
4:34 PM 57.6 °F - 32.4 °F 39% 30.16 in 10.0 mi SSW 16.1 mph 29.9 mph N/A   Clear
4:55 PM 57.7 °F - 33.4 °F 40% 30.16 in 10.0 mi WSW 17.3 mph 25.3 mph N/A   Clear
5:15 PM 57.2 °F - 35.1 °F 43% 30.16 in 10.0 mi West 18.4 mph 23.0 mph N/A   Clear
5:34 PM 57.2 °F - 34.7 °F 43% 30.17 in 10.0 mi WSW 15.0 mph 23.0 mph N/A   Clear
5:55 PM 56.3 °F - 34.3 °F 44% 30.17 in 10.0 mi WSW 12.7 mph 17.3 mph N/A   Clear
6:15 PM 55.4 °F - 34.7 °F 46% 30.18 in 10.0 mi WSW 11.5 mph 19.6 mph N/A   Clear
6:34 PM 55.4 °F - 35.6 °F 47% 30.18 in 10.0 mi WSW 13.8 mph 19.6 mph N/A   Clear
6:55 PM 54.9 °F - 35.8 °F 49% 30.18 in 10.0 mi WSW 12.7 mph - N/A   Clear
7:15 PM 54.1 °F - 36.1 °F 51% 30.19 in 10.0 mi WNW 11.5 mph 17.3 mph N/A   Clear
7:34 PM 53.1 °F - 36.5 °F 53% 30.19 in 10.0 mi WNW 9.2 mph - N/A   Clear
7:55 PM 51.8 °F - 36.1 °F 55% 30.19 in 10.0 mi West 8.1 mph - N/A   Clear
8:15 PM 50.5 °F - 36.5 °F 59% 30.19 in 10.0 mi WNW 5.8 mph - N/A   Clear
8:34 PM 49.3 °F - 36.1 °F 61% 30.19 in 10.0 mi WNW 4.6 mph - N/A   Clear
8:55 PM 48.2 °F - 36.0 °F 63% 30.20 in 10.0 mi WNW 5.8 mph - N/A   Clear
9:15 PM 48.2 °F - 36.0 °F 63% 30.20 in 10.0 mi WNW 6.9 mph - N/A   Clear
9:34 PM 47.3 °F - 36.1 °F 65% 30.21 in 10.0 mi WNW 6.9 mph - N/A   Clear
9:55 PM 46.8 °F - 36.5 °F 67% 30.22 in 10.0 mi WNW 5.8 mph - N/A   Clear
10:14 PM 46.6 °F - 36.1 °F 67% 30.22 in 10.0 mi Calm Calm - N/A   Clear
10:35 PM 45.7 °F 44.4 °F 36.1 °F 69% 30.22 in 10.0 mi WNW 3.5 mph - N/A   Clear
10:54 PM 45.5 °F 44.2 °F 36.0 °F 69% 30.23 in 10.0 mi WNW 3.5 mph - N/A   Clear
11:14 PM 45.1 °F - 35.8 °F 70% 30.23 in 10.0 mi Calm Calm - N/A   Clear
11:35 PM 44.2 °F 41.8 °F 35.6 °F 72% 30.22 in 10.0 mi NW 4.6 mph - N/A   Clear
11:54 PM 44.2 °F 41.8 °F 35.8 °F 72% 30.22 in 10.0 mi WNW 4.6 mph - N/A   Clear